Flag for Malaysia Weather past 2 weeks in Miri, Malaysia

Now
75 °F

Passing clouds.


Feels Like: 73 °F
Forecast: 77 / 89 °F
Wind: 3 mph from East

Location: Miri Airport

Current Time: Mar 28, 2015 at 5:21:18 AM

Latest Report: Mar 28, 2015 at 4:00 AM


Visibility: N/A

Pressure: 29.83 "Hg

Humidity: 100%

Dew point: 75 °F

Location of MiriLocation

Historic Weather in Miri — Graph

°F

Miri temperature yesterday

Maximum temperature yesterday: 88 °F (at 11:00 AM)
Minimum temperature yesterday: 77 °F (at 10:00 PM)
Average temperature yesterday: 82 °F

Past Weeks' High & Low Weather Summary

 TemperatureHumidityPressure
High91 °F (Mar 24, 1:00 PM)100% (Mar 13, 4:00 AM)29.98 "Hg (Mar 13, 4:00 AM)
Low72 °F (Mar 17, 5:00 AM)52% (Mar 24, 1:00 PM)29.74 "Hg (Mar 19, 4:00 PM)
Average80 °F85%29.87 "Hg
* Reported Mar 13 4:00 AM — Mar 28 4:00 AM, Miri, Weather by CustomWeather, © 2015

Note: Actual official high and low records may vary slightly from our data, if they occured in-between our weather recording intervals... More about our weather records

Advertising

Miri weather history for previous 24 hours

 ConditionsComfort  
Time TempWeatherWind HumidityBarometerVisibility
4:00 AM
Sat, Mar 28
75 °FPassing clouds.3 mph100%29.83 "HgN/A
3:00 AM75 °FPartly cloudy.2 mph94%29.83 "HgN/A
2:00 AM75 °FPartly cloudy.3 mph100%29.86 "HgN/A
1:00 AM77 °FPartly cloudy.2 mph94%29.86 "HgN/A
12:00 AM77 °FPartly cloudy.5 mph94%29.89 "HgN/A
11:00 PM
Fri, Mar 27
77 °FPartly cloudy.6 mph94%29.89 "HgN/A
10:00 PM77 °FPartly cloudy.7 mph94%29.89 "HgN/A
9:00 PM79 °FPartly cloudy.7 mph94%29.89 "HgN/A
8:00 PM81 °FPartly cloudy.2 mph89%29.86 "HgN/A
7:00 PM81 °FPartly cloudy.3 mph89%29.83 "HgN/A
6:00 PM84 °FBroken clouds.3 mph79%29.83 "Hg4 mi
5:00 PM84 °FBroken clouds.6 mph79%29.80 "Hg4 mi
4:00 PM86 °FThunderstorms. Broken clouds.12 mph79%29.80 "Hg4 mi
3:00 PM86 °FBroken clouds.10 mph79%29.80 "Hg4 mi
2:00 PM88 °FBroken clouds.10 mph75%29.83 "Hg4 mi
1:00 PM86 °FBroken clouds.8 mph75%29.86 "Hg4 mi
12:00 PM86 °FBroken clouds.7 mph75%29.89 "Hg4 mi
11:00 AM88 °FBroken clouds.6 mph70%29.92 "Hg5 mi
10:00 AM84 °FBroken clouds.5 mph79%29.92 "Hg4 mi
9:00 AM82 °FBroken clouds.2 mph79%29.92 "Hg4 mi
8:00 AM82 °FPartly sunny.2 mph84%29.92 "Hg3 mi
7:00 AM79 °FBroken clouds.2 mph94%29.89 "Hg3 mi
6:00 AM79 °FPartly cloudy.1 mph94%29.86 "Hg4 mi
5:00 AM79 °FPartly cloudy.No wind94%29.86 "HgN/A
Weather by CustomWeather, © 2015

See weather overviewHow to use our weather pages